Location: College Park
(38.9810°N, 76.9370°W)
Time: 20:09:47
(UTC-05:00)

Tiangong 1 - Pass Details

Date: 12 January 2018
Orbit: 264 x 288 km, 42.8° (Epoch: 16 January)

Event Time Altitude Azimuth Distance (km) Brightness Sun altitude
Rises 17:55:20 0° 214° (SSW) 1,921 5.6 -9.5°
Reaches altitude 10° 17:57:38 10° 192° (SSW) 1,104 3.8 -9.9°
Maximum altitude 17:59:20 17° 147° (SSE) 813 2.6 -10.2°
Enters shadow 18:00:35 13° 112° (ESE) 972 2.7 -10.5°
